TimePST,TemperatureF,Dew PointF,Humidity,Sea Level PressureIn,VisibilityMPH,Wind Direction,Wind SpeedMPH,Gust SpeedMPH,PrecipitationIn,Events,Conditions,WindDirDegrees,DateUTC
12:56 AM,28.9,19.0,67,30.19,10.0,SE,5.8,-,N/A,,Overcast,130,2012-12-20 08:56:00
1:56 AM,28.0,19.9,72,30.19,10.0,SE,5.8,-,N/A,,Overcast,130,2012-12-20 09:56:00
2:41 AM,28.4,19.4,69,30.06,10.0,ESE,4.6,-,N/A,,Overcast,110,2012-12-20 10:41:00
2:56 AM,28.9,19.9,69,30.17,10.0,ESE,4.6,-,N/A,,Overcast,120,2012-12-20 10:56:00
3:56 AM,28.9,21.0,72,30.15,8.0,Variable,4.6,-,0.00,Snow,Light Snow,0,2012-12-20 11:56:00
4:44 AM,28.4,23.0,80,30.00,1.8,Variable,5.8,-,0.02,Snow,Light Snow,0,2012-12-20 12:44:00
4:56 AM,28.0,23.0,81,30.12,1.0,Variable,4.6,-,0.03,Snow,Light Snow,0,2012-12-20 12:56:00
5:08 AM,28.4,24.8,86,30.00,0.8,Variable,5.8,-,0.01,Snow,Light Snow,0,2012-12-20 13:08:00
5:19 AM,28.4,23.0,80,30.00,0.5,Variable,6.9,-,0.02,Snow,Snow,0,2012-12-20 13:19:00
5:56 AM,28.0,23.0,81,30.11,1.0,SE,6.9,-,0.05,Snow,Light Snow,130,2012-12-20 13:56:00
6:06 AM,28.4,23.0,80,29.98,1.0,Variable,6.9,-,0.00,Snow,Light Snow,0,2012-12-20 14:06:00
6:28 AM,28.4,21.2,74,29.98,1.8,Variable,6.9,-,0.01,Snow,Light Snow,0,2012-12-20 14:28:00
6:37 AM,28.4,21.2,74,29.97,2.0,ESE,6.9,23.0,0.02,Snow,Light Snow,110,2012-12-20 14:37:00
6:48 AM,28.4,21.2,74,29.97,1.5,East,9.2,18.4,0.02,Snow,Light Snow,100,2012-12-20 14:48:00
6:56 AM,28.0,21.9,78,30.09,1.2,ESE,5.8,-,0.03,Snow,Light Snow,110,2012-12-20 14:56:00
7:07 AM,28.4,21.2,74,29.97,1.8,Variable,6.9,-,0.00,Snow,Light Snow,0,2012-12-20 15:07:00
7:16 AM,28.4,21.2,74,29.96,2.5,East,9.2,-,0.01,Snow,Light Snow,100,2012-12-20 15:16:00
7:23 AM,28.4,21.2,74,29.96,4.0,ESE,8.1,-,0.01,Snow,Light Snow,110,2012-12-20 15:23:00
7:36 AM,28.4,23.0,80,29.96,2.0,Variable,5.8,24.2,0.02,Snow,Light Snow,0,2012-12-20 15:36:00
7:39 AM,28.4,23.0,80,29.96,1.5,Variable,6.9,-,0.02,Snow,Light Snow,0,2012-12-20 15:39:00
7:43 AM,28.4,23.0,80,29.96,1.2,East,5.8,-,0.02,Snow,Light Snow,100,2012-12-20 15:43:00
7:53 AM,28.4,23.0,80,29.95,1.0,Variable,6.9,-,0.03,Snow,Light Snow,0,2012-12-20 15:53:00
7:56 AM,28.0,23.0,81,30.07,0.8,East,10.4,-,0.03,Snow,Light Snow,100,2012-12-20 15:56:00
8:01 AM,28.4,23.0,80,29.95,1.0,Variable,6.9,-,0.01,Snow,Light Snow,0,2012-12-20 16:01:00
8:11 AM,28.4,23.0,80,29.95,0.8,Variable,4.6,-,0.01,Snow,Light Snow,0,2012-12-20 16:11:00
8:56 AM,27.0,23.0,85,30.06,0.5,ESE,6.9,-,0.05,Fog-Snow,Light Snow,110,2012-12-20 16:56:00
9:05 AM,26.6,23.0,86,29.94,0.5,ESE,5.8,18.4,0.01,Fog-Snow,Light Snow,110,2012-12-20 17:05:00
9:35 AM,26.6,23.0,86,29.94,0.2,ESE,5.8,-,0.04,Fog-Snow,Light Snow,110,2012-12-20 17:35:00
9:56 AM,28.0,23.0,81,30.06,0.5,Variable,4.6,-,0.06,Snow,Snow,0,2012-12-20 17:56:00
10:21 AM,28.4,24.8,86,29.95,0.2,Variable,4.6,-,0.03,Fog-Snow,Light Snow,0,2012-12-20 18:21:00
10:56 AM,28.0,24.1,85,30.07,0.2,Variable,3.5,-,0.08,Fog-Snow,Snow,0,2012-12-20 18:56:00
11:56 AM,28.0,24.1,85,30.05,0.2,Variable,6.9,-,0.09,Fog-Snow,Snow,0,2012-12-20 19:56:00
12:56 PM,28.0,24.1,85,30.04,0.2,Variable,3.5,-,0.13,Fog-Snow,Snow,0,2012-12-20 20:56:00
1:56 PM,28.0,24.1,85,30.04,0.2,Variable,3.5,-,0.13,Fog-Snow,Heavy Snow,0,2012-12-20 21:56:00
2:56 PM,28.0,24.1,85,30.03,0.2,East,11.5,17.3,0.17,Fog-Snow,Heavy Snow,90,2012-12-20 22:56:00
3:56 PM,28.0,24.1,85,30.03,0.2,Variable,4.6,-,0.14,Fog-Snow,Heavy Snow,0,2012-12-20 23:56:00
4:27 PM,28.4,24.8,86,29.90,0.2,East,9.2,19.6,0.06,Fog-Snow,Snow,90,2012-12-21 00:27:00
4:46 PM,28.4,24.8,86,29.90,0.5,East,9.2,-,0.08,Snow,Snow,90,2012-12-21 00:46:00
4:56 PM,28.9,24.1,82,30.01,0.5,East,10.4,17.3,0.10,Snow,Snow,90,2012-12-21 00:56:00
5:46 PM,28.4,24.8,86,29.90,0.2,Variable,3.5,-,0.06,Fog-Snow,Snow,0,2012-12-21 01:46:00
5:56 PM,28.9,25.0,85,30.01,0.2,ESE,3.5,-,0.08,Fog-Snow,Snow,120,2012-12-21 01:56:00
6:19 PM,28.4,24.8,86,29.89,0.5,Calm,Calm,-,0.03,Fog-Snow,Snow,0,2012-12-21 02:19:00
6:56 PM,28.9,26.1,89,30.02,0.5,Calm,Calm,-,0.06,Fog-Snow,Snow,0,2012-12-21 02:56:00
7:03 PM,28.4,26.6,93,29.89,0.2,Calm,Calm,-,0.01,Fog-Snow,Heavy Snow,0,2012-12-21 03:03:00
7:15 PM,28.4,26.6,93,29.89,0.5,Calm,Calm,-,0.03,Fog-Snow,Snow,0,2012-12-21 03:15:00
7:30 PM,28.4,26.6,93,29.89,0.2,Calm,Calm,-,0.05,Fog-Snow,Heavy Snow,0,2012-12-21 03:30:00
7:41 PM,28.4,26.6,93,29.88,0.5,Calm,Calm,-,0.06,Fog-Snow,Snow,0,2012-12-21 03:41:00
7:56 PM,28.9,26.1,89,30.01,0.8,Calm,Calm,-,0.07,Snow,Light Snow,0,2012-12-21 03:56:00
8:02 PM,28.4,26.6,93,29.89,1.0,Calm,Calm,-,0.01,Snow,Light Snow,0,2012-12-21 04:02:00
8:12 PM,28.4,26.6,93,29.88,0.8,Calm,Calm,-,0.01,Snow,Light Snow,0,2012-12-21 04:12:00
8:39 PM,28.4,26.6,93,29.89,0.5,Calm,Calm,-,0.04,Fog-Snow,Snow,0,2012-12-21 04:39:00
8:56 PM,28.9,26.1,89,30.01,0.2,Calm,Calm,-,0.06,Fog-Snow,Snow,0,2012-12-21 04:56:00
9:16 PM,28.4,26.6,93,29.89,0.2,Calm,Calm,-,0.04,Fog-Snow,Snow,0,2012-12-21 05:16:00
9:20 PM,28.4,26.6,93,29.89,0.5,Calm,Calm,-,0.04,Fog-Snow,Snow,0,2012-12-21 05:20:00
9:56 PM,28.9,27.0,92,29.99,0.5,Variable,3.5,-,0.09,Fog-Snow,Snow,0,2012-12-21 05:56:00
10:25 PM,30.2,26.6,86,29.89,0.2,SE,4.6,-,0.03,Fog-Snow,Heavy Snow,130,2012-12-21 06:25:00
10:41 PM,30.2,26.6,86,29.88,0.8,SE,4.6,-,0.05,Snow,Light Snow,130,2012-12-21 06:41:00
10:56 PM,30.9,27.0,85,29.98,0.5,Variable,3.5,-,0.07,Fog-Snow,Snow,0,2012-12-21 06:56:00
11:09 PM,30.2,26.6,86,29.86,1.2,East,9.2,-,0.00,Snow,Light Snow,100,2012-12-21 07:09:00
11:16 PM,30.2,26.6,86,29.87,1.2,ESE,3.5,-,0.01,Snow,Light Snow,110,2012-12-21 07:16:00
11:39 PM,30.2,26.6,86,29.88,0.8,East,6.9,-,0.02,Snow,Light Snow,90,2012-12-21 07:39:00
11:56 PM,30.9,27.0,85,29.98,0.8,East,5.8,17.3,0.03,Snow,Light Snow,90,2012-12-21 07:56:00